[[{"header":{"parameterUnit":"m.s-1","parameterCategory":1,"la1":30.2991,"la2":30.254,"lo1":-89.0895,"lo2":-89.0444,"dy":0.0017,"dx":0.0017,"nx":28,"ny":28,"refTime":"2025-04-19T03:00:00:Z","depth":0,"parameterNumber":2,"parameterNumberName":"U-component_of_WINDS"},"data":[0,0,0,0,0,0,0,0,0,0,0,0,0,0,0,0,0,0,0,0,0,0,0,0,0,0,0,0,0,0,0,0,0,0,0,0,0,0,0,0,0,0,0,0,0,0,0,0,0,0,0,0,0,0,0,0,0,0,-5.169,-5.1691,0,-5.1809,-5.181,-5.1812,-5.1774,-5.1772,-5.1769,-5.1767,-5.1887,-5.1893,-5.1898,0,0,0,0,0,0,0,0,0,0,0,0,0,-5.1429,-5.1434,-5.169,-5.1691,-5.1693,-5.1809,-5.181,-5.1812,-5.1775,-5.1772,-5.1769,-5.1766,-5.1886,-5.1892,-5.1899,0,0,0,0,0,0,0,0,0,0,0,0,0,-5.1545,-5.1435,-5.1689,-5.1688,-5.1689,-5.1809,-5.1811,-5.1813,-5.1775,-5.1772,-5.1768,-5.1764,-5.1883,-5.1892,-5.19,-5.2027,0,0,-5.1925,-5.1929,0,0,0,0,0,0,0,0,-5.1538,-5.1554,-5.1687,-5.1688,-5.169,-5.1773,-5.1763,-5.1884,-5.1776,-5.1743,-5.1767,-5.1762,-5.1852,-5.1863,-5.1894,-5.2033,-5.2038,-5.1926,-5.1931,-5.1935,-5.1937,0,0,0,0,0,0,0,-5.153,-5.1549,-5.1737,-5.1689,-5.1691,-5.1681,-5.1693,-5.1786,-5.1817,-5.1745,-5.1743,-5.1757,-5.1852,-5.1886,-5.1896,-5.204,-5.1926,-5.1933,-5.1938,-5.1942,-5.229,-5.2294,0,0,0,0,0,0,-5.1521,-5.1542,-5.1733,-5.174,-5.1603,-5.1689,-5.1703,-5.175,-5.1816,-5.1823,-5.1761,-5.1755,-5.1873,-5.1886,-5.19,-5.2053,-5.1935,-5.1942,-5.1947,-5.2285,-5.2291,-5.2295,0,0,0,0,0,0,-5.1516,-5.1539,-5.1728,-5.1641,-5.1664,-5.1698,-5.1751,-5.1754,-5.1787,-5.1828,-5.1833,-5.1789,-5.1871,-5.1889,-5.1996,-5.2057,-5.1946,-5.1954,-5.228,-5.2287,-5.2293,-5.236,0,0,0,0,0,0,-5.1508,-5.1537,-5.1586,-5.1642,-5.1669,-5.1822,-5.1755,-5.1759,-5.1802,-5.1796,-5.1856,-5.1862,-5.1869,-5.1984,-5.2004,-5.2066,-5.196,-5.2275,-5.2283,-5.2291,-5.2352,-5.2368,-5.2381,0,0,0,0,0,-5.1499,-5.1599,-5.1588,-5.1611,-5.1731,-5.1826,-5.1841,-5.1848,-5.1807,-5.1856,-5.1882,-5.186,-5.2047,-5.1995,-5.2018,-5.2083,-5.2271,-5.2281,-5.229,-5.2346,-5.2365,-5.2381,0,0,0,0,0,0,-5.1548,-5.1607,-5.1595,-5.1717,-5.1767,-5.1819,-5.1881,-5.1868,-5.193,-5.1922,-5.1927,-5.1941,-5.2051,-5.2078,-5.2019,-5.221,-5.2153,-5.2168,-5.2188,-5.2206,-5.222,-5.221,-5.1967,0,0,0,0,0,-5.1573,-5.1646,-5.1693,-5.1796,-5.1822,-5.1848,-5.1889,-5.189,-5.1942,-5.1963,-5.1997,-5.2048,-5.2118,-5.2164,-5.2231,-5.2357,-5.2369,-5.2413,-5.2428,-5.2439,-5.2451,-5.2519,-5.2539,-5.2326,-5.2326,-5.2326,0,0,-5.1625,-5.1667,-5.1712,-5.1807,-5.1846,-5.192,-5.1865,-5.1947,-5.2002,-5.1975,-5.2078,-5.2105,-5.2162,-5.228,-5.2333,-5.2306,-5.2513,-5.2451,-5.246,-5.2466,-5.2531,-5.2551,-5.2569,-5.2333,-5.2332,-5.2331,0,0,-5.1758,-5.1797,-5.1886,-5.1927,-5.1987,-5.2004,-5.2026,-5.2081,-5.2098,-5.2202,-5.2183,-5.225,-5.2371,-5.2412,-5.2449,-5.26,-5.2581,-5.2622,-5.2695,-5.2761,-5.2778,-5.2793,-5.2845,-5.2864,-5.2634,-5.2634,-5.2634,0,-5.1815,-5.1927,-5.1934,-5.2017,-5.2059,-5.204,-5.213,-5.2169,-5.2248,-5.2277,-5.2246,-5.2398,-5.2435,-5.2561,-5.2598,-5.263,-5.2654,-5.2613,-5.2775,-5.279,-5.2804,-5.2854,-5.2874,-5.2638,-5.2638,-5.2637,-5.2637,0,-5.1993,-5.2071,-5.2136,-5.2213,-5.2263,-5.2349,-5.237,-5.2419,-5.2417,-5.2437,-5.2543,-5.2588,-5.2663,-5.2694,-5.2692,-5.2821,-5.2802,-5.2773,-5.2716,-5.2829,-5.2875,-5.2895,-5.2644,-5.2643,-5.2642,-5.264,0,0,-5.2157,-5.2238,-5.2262,-5.2296,-5.2362,-5.2422,-5.2508,-5.2583,-5.2624,-5.2681,-5.2752,-5.2856,-5.283,-5.2872,-5.2875,-5.2934,-5.3049,-5.2898,-5.2899,-5.2923,-5.3192,-5.3211,-5.3233,-5.3038,-5.3042,-5.3045,-5.3186,0,-5.2293,-5.2444,-5.2454,-5.259,-5.2662,-5.2646,-5.272,-5.2769,-5.2791,-5.2855,-5.2879,-5.2952,-5.2913,-5.2938,-5.2996,-5.3023,-5.3102,-5.3013,-5.3103,-5.3106,-5.3087,-5.3258,-5.3278,-5.3409,-5.3205,-5.3208,-5.321,0,-5.2472,-5.2533,-5.2677,-5.2732,-5.2763,-5.283,-5.2899,-5.2961,-5.3016,-5.3028,-5.3076,-5.3071,-5.3159,-5.3101,-5.3222,-5.3161,-5.3199,-5.3218,-5.3223,-5.3229,-5.3163,-5.3267,-5.3451,-5.347,-5.3239,-5.3237,-5.3235,0,-5.2574,-5.2694,-5.2794,-5.2825,-5.2893,-5.294,-5.2971,-5.3022,-5.3067,-5.3128,-5.3156,-5.3227,-5.3265,-5.332,-5.3334,-5.3291,-5.3454,-5.3398,-5.3466,-5.3465,-5.3498,-5.3495,-5.3689,-5.3527,-5.3527,-5.3527,-5.3526,0,-5.2724,-5.2812,-5.2841,-5.2903,-5.3001,-5.3013,-5.311,-5.3137,-5.3183,-5.325,-5.3242,-5.3304,-5.3321,-5.3387,-5.34,-5.3497,-5.3515,-5.3526,-5.3528,-5.3526,-5.3524,-5.3548,-5.3539,-5.3532,-5.3531,-5.353,-5.3529,0,-5.2854,-5.2878,-5.2986,-5.3043,-5.3059,-5.3129,-5.3177,-5.3236,-5.3258,-5.3342,-5.3363,-5.3397,-5.3474,-5.3495,-5.3588,-5.3596,-5.371,-5.3705,-5.3691,-5.369,-5.3756,-5.3749,-5.3971,-5.4,-5.3821,-5.3823,-5.3824,0,-5.2947,-5.3014,-5.3078,-5.3122,-5.3155,-5.3227,-5.3272,-5.3287,-5.3334,-5.3403,-5.3454,-5.3531,-5.3592,-5.3717,-5.3749,-5.382,-5.3815,-5.3888,-5.3825,-5.3821,-5.3813,-5.3808,-5.3814,-5.3898,-5.39,-5.3902,-5.3903,0,-5.3108,-5.3117,-5.3183,-5.3253,-5.3308,-5.3364,-5.3418,-5.3455,-5.3477,-5.3531,-5.3611,-5.3659,-5.3754,-5.3829,-5.3902,-5.3933,-5.3922,-5.3923,-5.3942,-5.3939,-5.3928,-5.3933,-5.3721,-5.3917,-5.3916,-5.3915,-5.3914,-5.3913,-5.3221,-5.328,-5.3334,-5.3408,-5.345,-5.3501,-5.356,-5.3589,-5.3656,-5.3734,-5.3739,-5.3825,-5.3879,-5.3975,-5.401,-5.4078,-5.4056,-5.4084,-5.409,-5.4096,-5.4101,-5.392,-5.4091,-5.4091,-5.409,-5.409,-5.409,0,-5.338,-5.3415,-5.3483,-5.3558,-5.3617,-5.3603,-5.3662,-5.3712,-5.3787,-5.3839,-5.39,-5.3992,-5.4065,-5.4105,-5.4178,-5.4224,-5.4221,-5.4243,-5.4238,-5.4246,-5.4117,-5.4093,-5.4244,-5.4244,-5.4244,-5.4244,-5.4244,-5.4244,-5.3469,-5.3568,-5.3583,-5.3703,-5.3737,-5.3821,-5.3856,-5.3903,-5.3944,-5.4047,-5.4108,-5.4134,-5.418,-5.4257,-5.4325,-5.4334,-5.4361,-5.4385,-5.4392,-5.4271,-5.4255,-5.424,-5.4216,-5.4391,-5.4392,-5.4514,-5.4515,-5.4516]},{"header":{"parameterUnit":"m.s-1","parameterCategory":1,"la1":30.2991,"la2":30.254,"lo1":-89.0895,"lo2":-89.0444,"dy":0.0017,"dx":0.0017,"nx":28,"ny":28,"refTime":"2025-04-19T03:00:00:Z","depth":0,"parameterNumber":3,"parameterNumberName":"V-component_of_WINDS"},"data":[0,0,0,0,0,0,0,0,0,0,0,0,0,0,0,0,0,0,0,0,0,0,0,0,0,0,0,0,0,0,0,0,0,0,0,0,0,0,0,0,0,0,0,0,0,0,0,0,0,0,0,0,0,0,0,0,0,0,3.7633,3.7633,0,3.7652,3.7652,3.7652,3.7611,3.761,3.7608,3.7607,3.7625,3.7626,3.7628,0,0,0,0,0,0,0,0,0,0,0,0,0,3.7561,3.7562,3.7633,3.7633,3.7633,3.7652,3.7652,3.7652,3.7611,3.761,3.7608,3.7607,3.7624,3.7626,3.7628,0,0,0,0,0,0,0,0,0,0,0,0,0,3.7587,3.7563,3.7633,3.7615,3.7614,3.7652,3.7652,3.7652,3.7612,3.761,3.7608,3.7606,3.7623,3.7626,3.7628,3.7684,0,0,3.7636,3.7637,0,0,0,0,0,0,0,0,3.7586,3.759,3.7617,3.7616,3.7615,3.7627,3.7633,3.7663,3.7612,3.7612,3.7607,3.7605,3.7627,3.7629,3.7637,3.7684,3.7685,3.7636,3.7638,3.7639,3.764,0,0,0,0,0,0,0,3.7584,3.7589,3.764,3.7618,3.7616,3.7606,3.7608,3.7638,3.763,3.7612,3.7609,3.7612,3.7626,3.7635,3.7637,3.7685,3.7636,3.7639,3.764,3.7641,3.7781,3.7783,0,0,0,0,0,0,3.7584,3.7587,3.764,3.7641,3.7595,3.7609,3.7611,3.7625,3.763,3.7629,3.7614,3.761,3.7631,3.7634,3.7637,3.7703,3.7639,3.7641,3.7643,3.7779,3.7782,3.7784,0,0,0,0,0,0,3.7583,3.7589,3.7639,3.7613,3.7619,3.7612,3.7629,3.7627,3.7635,3.7631,3.763,3.7624,3.763,3.7634,3.7673,3.7703,3.7642,3.7645,3.7777,3.778,3.7783,3.7835,0,0,0,0,0,0,3.7581,3.7589,3.761,3.7614,3.762,3.7674,3.7631,3.7628,3.764,3.7635,3.7641,3.764,3.7628,3.767,3.7676,3.7706,3.7647,3.7774,3.7778,3.7782,3.7831,3.784,3.7848,0,0,0,0,0,3.7579,3.7623,3.7611,3.7618,3.7646,3.7676,3.768,3.7667,3.7643,3.7664,3.7662,3.7639,3.7699,3.7674,3.768,3.7712,3.7772,3.7777,3.7782,3.7827,3.7838,3.7848,0,0,0,0,0,0,3.7621,3.7623,3.761,3.7657,3.7667,3.7669,3.7695,3.7679,3.7695,3.769,3.7672,3.7674,3.7717,3.7718,3.769,3.7767,3.7731,3.7738,3.7764,3.7774,3.7783,3.7781,3.7649,0,0,0,0,0,3.7636,3.7661,3.7661,3.7702,3.7708,3.7701,3.7713,3.7703,3.7712,3.7716,3.7716,3.7726,3.7747,3.7761,3.778,3.7831,3.7832,3.7857,3.7865,3.7872,3.7878,3.7906,3.7917,3.7801,3.78,3.78,0,0,3.7667,3.7671,3.7687,3.7711,3.7717,3.7743,3.7705,3.7733,3.7752,3.772,3.7757,3.7758,3.7768,3.7814,3.7834,3.7816,3.7911,3.7878,3.7884,3.7886,3.7913,3.7924,3.7934,3.7804,3.7803,3.7803,0,0,3.7736,3.7742,3.7778,3.7786,3.7796,3.7792,3.7801,3.7806,3.7806,3.7844,3.7821,3.7843,3.7879,3.7887,3.7896,3.7972,3.7953,3.7979,3.8023,3.8051,3.8061,3.8069,3.8096,3.8106,3.7985,3.7985,3.7985,0,3.7773,3.7811,3.7798,3.7829,3.7841,3.7815,3.7851,3.7859,3.7875,3.7884,3.7864,3.7911,3.7915,3.7964,3.7982,3.799,3.8,3.7978,3.806,3.8068,3.8076,3.8102,3.8112,3.7988,3.7988,3.7987,3.7987,0,3.7856,3.7883,3.7911,3.7929,3.7944,3.7977,3.797,3.7986,3.7976,3.7973,3.8013,3.8018,3.8038,3.8049,3.8037,3.8096,3.8085,3.8063,3.8028,3.809,3.8115,3.8124,3.7992,3.7991,3.799,3.799,0,0,3.795,3.7963,3.7973,3.7982,3.7993,3.8014,3.8047,3.8068,3.8083,3.8096,3.8123,3.8156,3.8137,3.8147,3.8137,3.8162,3.8223,3.8137,3.8137,3.8153,3.8289,3.8305,3.8317,3.8211,3.8213,3.8214,3.8288,0,3.8019,3.8077,3.8067,3.8123,3.8149,3.8126,3.8155,3.8165,3.8164,3.8186,3.8185,3.8209,3.8181,3.8187,3.8211,3.8211,3.825,3.8205,3.8236,3.8237,3.8234,3.8329,3.8346,3.8416,3.8298,3.8299,3.83,0,3.8106,3.8125,3.8183,3.8193,3.8203,3.823,3.8249,3.827,3.8282,3.828,3.8293,3.8279,3.8312,3.8277,3.8323,3.8293,3.8305,3.8307,3.831,3.8312,3.8272,3.8334,3.8438,3.8448,3.8315,3.8314,3.8313,0,3.817,3.8209,3.825,3.8258,3.827,3.8289,3.8295,3.8305,3.8319,3.8336,3.8345,3.8366,3.8377,3.8394,3.8386,3.8361,3.8434,3.8397,3.8433,3.8433,3.8448,3.8447,3.8555,3.8457,3.8457,3.8457,3.8456,0,3.8248,3.8285,3.8279,3.8303,3.8345,3.8334,3.8375,3.8378,3.8388,3.8413,3.8394,3.8418,3.8407,3.843,3.8424,3.8464,3.8469,3.8468,3.8466,3.8469,3.847,3.8477,3.8472,3.8459,3.8459,3.8458,3.8458,0,3.8325,3.8322,3.8365,3.8374,3.8378,3.8408,3.8415,3.8439,3.8438,3.847,3.8477,3.8475,3.8502,3.8496,3.8525,3.8521,3.8571,3.8563,3.8567,3.8565,3.8601,3.8598,3.8717,3.8732,3.8624,3.8625,3.8626,0,3.8374,3.8403,3.8416,3.8432,3.844,3.8466,3.8481,3.8472,3.8489,3.8506,3.8528,3.8553,3.8573,3.8617,3.8618,3.864,3.8632,3.8673,3.8635,3.8639,3.8633,3.8632,3.8635,3.868,3.8681,3.8682,3.8683,0,3.8463,3.8461,3.8484,3.8507,3.8526,3.8544,3.8559,3.8574,3.8567,3.8586,3.8614,3.863,3.866,3.8686,3.8707,3.8713,3.8697,3.8695,3.8704,3.8708,3.871,3.871,3.8587,3.8692,3.8691,3.869,3.869,3.8689,3.8528,3.8553,3.8567,3.8593,3.8605,3.862,3.8644,3.8647,3.867,3.8695,3.8689,3.8721,3.8734,3.8761,3.8769,3.8794,3.8779,3.8792,3.8796,3.8799,3.8804,3.8706,3.8798,3.8798,3.8797,3.8797,3.8797,0,3.8616,3.8625,3.8649,3.8673,3.8694,3.8679,3.8697,3.8715,3.8744,3.8758,3.8778,3.8811,3.8837,3.8841,3.8865,3.8884,3.8878,3.8891,3.8889,3.8891,3.8816,3.8805,3.8896,3.8896,3.8896,3.8896,3.8896,3.8896,3.8664,3.8706,3.8706,3.8754,3.8762,3.8794,3.8805,3.882,3.8831,3.8869,3.8891,3.8894,3.8904,3.8929,3.8952,3.8953,3.8963,3.8979,3.8976,3.8906,3.8896,3.8887,3.8877,3.8981,3.8981,3.905,3.905,3.9051]}]]